Regional Weather Roundup
Issued by NWS Sterling, VA

Home | Current Version | Previous Version | Graphics & Text | Print | Product List | Glossary On
Versions: 1 2 3 4 5 6 7 8 9 10 11 12 13 14 15 16 17 18 19 20 21 22 23 24 25 26 27
000
ASUS41 KLWX 092210
RWRLWX

REGIONAL WEATHER ROUNDUP
NATIONAL WEATHER SERVICE BALTIMORE MD/WASHINGTON DC
500 PM EST FRI DEC 09 2016

Note: "FAIR" indicates few or no clouds below 12,000 feet
with no significant weather and/or obstructions to visibility.
 TC=TEMPERATURE CELSIUS

 * =Non NWS site. Station does not report precipitation (e.g. rain,
    snow, etc.), thunder, or fog.

DCZ001-MDZ009-015-VAZ040>042-051-053>054-092300-
WASHINGTON METRO

CITY           SKY/WX    TMP DP  RH WIND       PRES   REMARKS
WASHINGTON NAT PTCLDY    36  16  44 W10G21    30.38R WCI  28
DULLES         PTCLDY    32  15  49 NW18      30.38R WCI  20
ANDREWS AFB    PTCLDY    34  15  45 NW16      30.35R WCI  24
FT BELVOIR     CLEAR     35  15  43 NW10      30.38R WCI  27
QUANTICO       CLEAR     36  16  44 N6        30.41R
COLLEGE PARK*  MOCLDY    34  16  47 W15G26    30.37R WCI  24
LEESBURG*      MOCLDY    32  21  64 W14G20    30.39R WCI  22
MANASSAS*      PTCLDY   N/A N/A N/A N12G17    30.40R
GAITHERSBURG*  PTCLDY    30  12  47 W14       30.38R WCI  20

$$

MDZ006>007-011-014-092300-
BALTIMORE METRO

CITY           SKY/WX    TMP DP  RH WIND       PRES   REMARKS
BWI AIRPORT    PTCLDY    34  17  50 W13       30.34R WCI  25
MD SCIENCE CTR   N/A     36  14  40 MISG      30.33R
MARTIN STATE   PTCLDY    36  19  51 W20G26    30.35R WCI  25
ANNAPOLIS      PTCLDY    38  17  42 W9G16     30.35R

$$

MDZ012-015-019>023-092300-
MARYLAND EASTERN SHORE

CITY           SKY/WX    TMP DP  RH WIND       PRES   REMARKS
OCEAN CITY     PTCLDY    36  18  48 NW8       30.31R
SALISBURY      CLEAR     36  17  46 NW8       30.32R
BAY BRIDGE AP* PTCLDY    37  19  48 MISG      30.34R
CAMBRIDGE*     PTCLDY    36  19  51 NW10G20   30.33R WCI  28
EASTON*        PTCLDY    37  16  41 NW15G23   30.36R WCI  28

$$

MDZ017>025-092300-
SOUTHERN MARYLAND

CITY           SKY/WX    TMP DP  RH WIND       PRES   REMARKS
PATUXENT RIVER CLEAR     36  16  44 NW17      30.35R WCI  26
ST INIGOES     CLEAR     37  16  42 W16G22    30.35R WCI  28
LEONARDTOWN*   CLEAR     36  16  44 W12G21    30.37R WCI  27

$$

MDZ003>005-092300-
NORTH CENTRAL MARYLAND

CITY           SKY/WX    TMP DP  RH WIND       PRES   REMARKS
FREDERICK*     PTCLDY    32  18  55 W10G18    30.40R WCI  24
HAGERSTOWN APT MOCLDY    32  14  47 W16       30.35R WCI  21
WESTMINSTER*     N/A     30  16  55 NW12      30.32R WCI  21

$$

MDZ501>502-092300-
WESTERN MARYLAND

CITY           SKY/WX    TMP DP  RH WIND       PRES   REMARKS
OAKLAND*         N/A     18  16  93 W10G17    30.25R FOG     WCI   6
CUMBERLAND*    NOT AVBL

$$

VAZ025>031-092300-
SHENANDOAH VALLEY

CITY           SKY/WX    TMP DP  RH WIND       PRES   REMARKS
WINCHESTER*    CLOUDY    30  16  55 W10G18    30.38R WCI  21
FRONT ROYAL*   FAIR      32  16  51 NW8       30.38R WCI  25
LURAY*         FAIR      32  18  55 NW13G20   30.38S WCI  22
NEW MARKET*    CLOUDY    30  11  44 W6        30.38S
STAUNTON*      CLEAR     28  11  49 NW9       30.40R WCI  19
WAYNESBORO*    FAIR      29   8  41 W7        30.37R

$$

WVZ021-048>050-054>055-092300-
EASTERN WEST VIRGINIA PANHANDLE

CITY           SKY/WX    TMP DP  RH WIND       PRES   REMARKS
MARTINSBURG    CLEAR     31  15  52 W15       30.37R WCI  20
PETERSBURG*    CLOUDY    30  16  55 W9G20     30.42S WCI  22

$$

VAZ036>039-050-092300-
CENTRAL FOOTHILLS

CITY           SKY/WX    TMP DP  RH WIND       PRES   REMARKS
CHARLOTTESVILL PTCLDY    36  11  35 NW8       30.39R
CULPEPER*      CLEAR     35  15  43 NW7       30.40R
ORANGE*          N/A     36  10  35 W5        30.40R
GORDONSVILLE*  FAIR      35  11  37 NW7       30.38R
WARRENTON*     FAIR      33  10  38 NW9       30.39R WCI  26

$$

VAZ055>057-092300-
NORTH AND CENTRAL PIEDMONT

CITY           SKY/WX    TMP DP  RH WIND       PRES   REMARKS
FREDERICKSBRG* CLEAR     37  16  42 NW9       30.39R
STAFFORD*      CLEAR     34  15  45 NW12      30.43R WCI  25

$$

NCZ024-NYZ072-PAZ021-071-VAZ022-071-092300-
OTHER REGIONAL OBSERVATIONS

CITY           SKY/WX    TMP DP  RH WIND       PRES   REMARKS
NEW YORK CITY  CLOUDY    36  13  38 NW9G17    30.20R WCI  29
PHILADELPHIA   PTCLDY    37  16  42 W14G24    30.27R WCI  28
PITTSBURGH     CLOUDY    27  18  69 W7        30.38R
ROANOKE        PTCLDY    29  11  47 NW13      30.43R WCI  19
RICHMOND       PTCLDY    37  12  35 NW8       30.38R
RALEIGH        PTCLDY    37  11  34 VRB3      30.41R

$$

ANZ530>537-092300-
MARINE OBSERVATIONS

STATION/POSITION TIME  TEMP    WIND        PRES
                       AIR SEA DIR/SP/G
                 (UTC) (F)     (DEG/KT/KT) (MB)
THOMAS PT LIGHT  2200   37 46  290/ 19/ 23   N/A
BALT KEY BRIDGE  2148   36     290/ 20/ 23 1027.0R
COVE POINT       2148   37     330/ 21/ 25 1028.3R
LEWISETTA        2148   39 45  340/ 10/ 15 1027.8R
SOLOMONS ISLAND  2136   38 48  310/ 14/ 20   N/A
PINEY POINT      2142          350/ 19/ 23   N/A

$$





USA.gov is the U.S. government's official web portal to all federal, state and local government web resources and services.